Weather History for LEMO - June, 2013

Change the Weather History Date:

Wednesday, June 26, 2013

  Actual Average Record
Temperature  
Mean Temperature 79 °F -  
Max Temperature 98 °F 91 °F 105 °F (2012)
Min Temperature 60 °F 64 °F 59 °F (1998)
Cooling Degree Days 14    
Growing Degree Days 29 (Base 50)    
Moisture  
Dew Point 55 °F    
Average Humidity 44    
Maximum Humidity 68    
Minimum Humidity 22    
Precipitation  
Precipitation 0.00 in - - ()
Sea Level Pressure  
Sea Level Pressure 30.03 in    
Wind  
Wind Speed 3 mph ()    
Max Wind Speed 8 mph    
Max Gust Speed -    
Averages and records for this station are not official NWS values.
T = Trace of Precipitation, MM = Missing Value Source: Averaged Metar Reports

Daily Weather History Graph

Daily Weather History Graph

Search for Another Location

Airport or City:

Trip Planner

Search our weather history database for the weather conditions in past years. The results will help you decide how hot, cold, wet, or windy it might be!

Date:

Astronomy

Jun. 26, 2013 Rise Set
Actual Time 7:04 AM CEST 9:46 PM CEST
Civil Twilight 6:33 AM CEST 10:17 PM CEST
Nautical Twilight 5:54 AM CEST 10:56 PM CEST
Astronomical Twilight 5:11 AM CEST 11:39 PM CEST
Moon No Moon Rise 10:34 AM CEST (6/26)
Length of Visible Light 15h 44m
Length of Day
14h 42m
Waning Gibbous, 87% of the Moon is Illuminated
Jun 26
Waning Gibbous
Jun 30
Last Quarter
Jul 8
New
Jul 16
First Quarter
Jul 22
Full

Hourly Weather History & Observations

Time (CEST) Temp. Heat Index Dew Point Humidity Pressure Visibility Wind Dir Wind Speed Gust Speed Precip Events Conditions
12:00 AM 71.6 °F - 53.6 °F 53% 30.04 in - NNW 4.6 mph - N/A   Clear
1:00 AM 71.6 °F - 53.6 °F 53% 30.06 in - North 3.5 mph - N/A   Clear
2:00 AM 68.0 °F - 51.8 °F 56% 30.06 in - Calm Calm - N/A   Clear
3:00 AM 69.8 °F - 53.6 °F 56% 30.06 in - Variable 2.3 mph - N/A   Clear
4:00 AM 66.2 °F - 53.6 °F 64% 30.04 in - NNE 3.5 mph - N/A   Clear
5:00 AM 68.0 °F - 51.8 °F 56% 30.04 in - Variable 2.3 mph - N/A   Clear
6:00 AM 64.4 °F - 50.0 °F 59% 30.04 in - North 3.5 mph - N/A   Clear
7:00 AM 60.8 °F - 50.0 °F 68% 30.04 in - Calm Calm - N/A   Clear
8:00 AM 62.6 °F - 51.8 °F 68% 30.04 in - Calm Calm - N/A   Clear
9:00 AM 69.8 °F - 51.8 °F 53% 30.04 in - Calm Calm - N/A   Clear
10:00 AM 77.0 °F - 51.8 °F 41% 30.06 in - Calm Calm - N/A   Clear
11:00 AM 82.4 °F 82.0 °F 57.2 °F 42% 30.06 in - Variable 3.5 mph - N/A   Clear
12:00 PM 87.8 °F 86.5 °F 57.2 °F 35% 30.04 in - Variable 2.3 mph - N/A   Clear
1:00 PM 89.6 °F 88.1 °F 57.2 °F 33% 30.04 in - Variable 3.5 mph - N/A   Clear
2:00 PM 93.2 °F 91.9 °F 57.2 °F 30% 30.04 in - Variable 3.5 mph - N/A   Clear
3:00 PM 95.0 °F 93.7 °F 57.2 °F 28% 30.01 in - Variable 3.5 mph - N/A   Clear
4:00 PM 96.8 °F 95.8 °F 57.2 °F 27% 30.01 in - Variable 3.5 mph - N/A   Clear
5:00 PM 98.6 °F 96.4 °F 53.6 °F 22% 29.98 in - Variable 3.5 mph - N/A   Clear
6:00 PM 95.0 °F 95.2 °F 60.8 °F 32% 29.98 in - West 8.1 mph - N/A   Clear
7:00 PM 93.2 °F 93.3 °F 60.8 °F 34% 29.98 in - West 6.9 mph - N/A   Clear
8:00 PM 89.6 °F 88.9 °F 59.0 °F 36% 29.98 in - West 6.9 mph - N/A   Clear
9:00 PM 86.0 °F 84.5 °F 55.4 °F 35% 29.98 in - West 6.9 mph - N/A   Clear
10:00 PM 80.6 °F 80.3 °F 53.6 °F 39% 30.01 in - West 5.8 mph - N/A   Clear
11:00 PM 75.2 °F - 53.6 °F 47% 30.01 in - South 4.6 mph - N/A   Clear